Tracking 20093 objects as of 14-Dec-2019
HD Live streaming from Space Station
objects crossing your sky now

COSMOS 2251 DEB

Track COSMOS 2251 DEB now!
10-day predictions


NORAD ID: 34997
Int'l Code: 1993-036AFV
Perigee: 721.1 km
Apogee: 889.5 km
Inclination: 73.9 °
Period: 100.8 minutes
Semi major axis: 7176 km
RCS: 0.0096 m2 (small)
Launch date: June 16, 1993
Source: Commonwealth of Independent States (former USSR) (CIS)
Launch site: PLESETSK MISSILE AND SPACE COMPLEX (PKMTR)

Note: This is SATELLITE DEBRIS
aabbcc
Your satellite tracking list
Your tracking list is empty




NASA's NSSDC Master Catalog

Two Line Element Set (TLE):
1 34997U 93036AFV 19347.40259302 +.00000502 +00000-0 +19746-3 0  9999
2 34997 073.8898 032.6077 0117328 092.5430 268.9155 14.28069936393567
Source of the keplerian elements: AFSPC